Regional Weather Roundup
Issued by NWS

Home | Current Version | Previous Version | Text Only | Print | Product List | Glossary Off
Versions: 1 2 3 4 5 6 7 8 9 10 11 12 13 14 15 16 17 18 19 20 21 22 23 24 25 26 27 28 29 30 31 32 33 34 35 36 37 38 39 40 41 42 43 44 45 46 47 48 49 50

000
ASUS43 KIND 280659
RWRIN

WEATHER ROUNDUP FOR INDIANA
NATIONAL WEATHER SERVICE INDIANAPOLIS IN
300 AM EDT FRI AUG 28 2015

NOTE: "FAIR" INDICATES FEW OR NO CLOUDS BELOW 12,000 FEET WITH NO
SIGNIFICANT WEATHER AND/OR OBSTRUCTIONS TO VISIBILITY.

* - STATION DOES NOT REPORT WEATHER SUCH AS PRECIPITATION OR FOG.

+ - STATION NOT QUALITY CONTROLLED BY THE NATIONAL WEATHER SERVICE.
    USE DATA WITH CAUTION...ESPECIALLY DEWPOINT AND RELATIVE
    HUMIDITY OBSERVATIONS.

INZ001>003-010>013-019-020-280800-
NORTHWEST INDIANA

CITY           SKY/WX    TMP DP  RH WIND       PRES   REMARKS
KNOX *+          N/A     50  50 100 CALM      30.14S
MONTICELLO +   CLEAR     60  58  91 CALM      30.13F
RENSSELAER +   CLEAR     55  55 100 NE3       30.14S

$$

LMZ046-743>745-280800-
SOUTHERN LAKE MICHIGAN

STATION/POSITION TIME  TEMP    WIND        PRES    WAVE
                       AIR SEA DIR/SP/G            HT
                 (UTC) (F)     (DEG/KT/KT) (MB)    (FT)
BURNS HARBOR     0600   65     110/  9/ 13 1021.0S
MICHIGAN CITY    0600   62     100/  6/  7   N/A
5NW MICH CITY    0600   65 71  140/ 10/ 10   N/A     1

$$

INZ004-005-014>016-021>024-280800-
NORTH CENTRAL INDIANA

CITY           SKY/WX    TMP DP  RH WIND       PRES   REMARKS
GOSHEN         CLEAR     56  53  90 SE3       30.16S
SOUTH BEND     CLEAR     57  54  89 E5        30.16F

$$

INZ006>009-017-018-025>027-280800-
NORTHEAST INDIANA

CITY           SKY/WX    TMP DP  RH WIND       PRES   REMARKS
FORT WAYNE     PTCLDY    58  55  90 E3        30.17S

$$

INZ028-029-035-036-043>045-051>053-280800-
WEST CENTRAL INDIANA

CITY           SKY/WX    TMP DP  RH WIND       PRES   REMARKS
LAFAYETTE      PTCLDY    59  56  89 E3        30.12F
TERRE HAUTE    MOCLDY    61  58  90 SE3       30.12F

$$

INZ030>032-037>040-046>048-054>057-064-065-280800-
CENTRAL INDIANA

CITY           SKY/WX    TMP DP  RH WIND       PRES   REMARKS
FRANKFORT +    CLEAR    N/A N/A N/A E6        30.15S
GREENWOOD *+   CLEAR     59  54  82 CALM      30.15S
INDIANAPOLIS   CLEAR     62  56  80 SE3       30.12S
-EAGLE CREEK   CLEAR     61  57  87 CALM      30.13F
KOKOMO *+      CLEAR     55  52  88 E6        30.15F
MT COMFORT *+  CLEAR     54 N/A N/A SE3       30.15R
SHELBYVILLE    CLEAR     57  54  89 N3        30.14R

$$

INZ033-034-041-042-049-050-058-059-280800-
EAST CENTRAL INDIANA

CITY           SKY/WX    TMP DP  RH WIND       PRES   REMARKS
MUNCIE         MOCLDY    54  54 100 CALM      30.16S

$$

INZ060-061-067>069-081>083-085>088-280800-
SOUTHWEST INDIANA

CITY           SKY/WX    TMP DP  RH WIND       PRES   REMARKS
EVANSVILLE     CLEAR     63  59  87 N3        30.11S
HUNTINGBURG *+ CLEAR     61  55  82 CALM      30.12R

$$

INZ062-063-066-070>080-084-089>092-280800-
SOUTH CENTRAL AND SOUTHEAST INDIANA

CITY           SKY/WX    TMP DP  RH WIND       PRES   REMARKS
BLOOMINGTON    CLEAR     56  54  93 CALM      30.14R FOG
MADISON *+     CLEAR     57  55  94 E3        30.15F
SEYMOUR +      CLEAR     55  55 100 CALM      30.13S

$$



USA.gov is the U.S. government's official web portal to all federal, state and local government web resources and services.